Location: Byhalia Creek
(34.8270°N, 89.8040°W)
Time: 16:42:33
(UTC+00:00)

Resurs 1-4 Rocket - Pass Details

Date: 22 April 2026
Orbit: 798 x 812 km, 98.8° (Epoch: 9 May)

Event Time Altitude Azimuth Distance (km) Brightness Sun altitude
Rises 09:29:51 0° 0° (N) 3,333 5.8 -21.2°
Reaches altitude 10° 09:32:27 10° 350° (N) 2,396 4.8 -20.7°
Maximum altitude 09:36:57 29° 291° (WNW) 1,438 3.1 -19.9°
Enters shadow 09:37:30 29° 280° (W) 1,455 3.0 -19.8°
